Temp
63 63 63 63 63 63 64 64 64 64 64 64 64 64 64 64 64 71 78 89 86 82 83 90 90 90 73 68 71 75 64 69 76 76 79 89 86 92 92 84 84 85 81 82 84
63 63 63 62 63 63 63 63 63 63 63 63 63 64 64 64 70 79 89 86 84 82 86 89 84 78 70 66 69 69 67 79 88 86 84 89 88 88 84 80 78 80 84 84 82
63 62 62 62 62 62 62 63 63 63 63 63 63 64 64 63 73 86 88 85 83 84 94 95 83 75 71 74 76 77 73 89 90 93 92 89 88 92 84 78 77 75 79 84 80
62 62 62 62 62 62 62 62 62 62 62 62 63 64 64 68 70 92 84 84 84 90 93 93 82 73 67 72 83 77 92 93 92 94 91 89 92 88 85 84 88 84 84 83 82
61 61 61 61 61 61 62 62 61 61 62 62 63 64 64 68 78 88 83 83 86 90 89 90 82 73 68 74 86 77 86 93 94 94 90 92 89 87 87 90 91 90 84 82 83
61 61 61 61 61 61 61 61 60 61 61 62 64 64 62 66 97 88 89 86 91 89 90 93 85 82 81 82 80 86 84 89 85 83 92 88 86 86 87 91 90 90 88 84 84
61 61 60 60 61 61 60 60 60 60 61 63 64 71 70 75 99 90 92 89 92 93 89 95 95 85 87 77 84 88 80 85 80 82 84 82 78 79 88 90 87 88 88 88 83
60 60 60 60 60 59 59 58 59 61 62 64 65 68 66 93 96 96 96 92 96 98 97 92 94 84 81 80 84 77 73 67 78 79 81 79 65 81 84 87 83 86 88 87 85
60 60 60 59 59 58 57 58 60 62 64 67 61 62 72 92 90 96 98 93 94 97 95 102 92 82 80 76 70 70 59 63 69 80 76 76 66 80 82 80 80 85 83 81 83
59 59 59 59 58 57 56 57 63 64 66 76 81 68 80 86 92 97 98 99 93 93 93 88 79 78 72 69 59 62 63 68 64 74 74 73 70 79 80 79 76 79 76 83 83
59 59 58 58 58 56 56 68 67 63 72 71 75 79 89 93 97 92 98 96 94 89 78 85 73 69 78 76 75 74 67 64 72 77 74 71 71 74 79 78 77 76 74 74 81
59 58 58 58 57 56 53 64 79 80 71 79 84 85 91 91 87 92 98 87 85 78 83 80 74 81 83 82 80 73 68 67 73 79 73 71 71 76 78 74 78 79 74 74 76
58 58 57 57 56 54 63 74 87 88 71 82 82 83 87 91 87 86 94 90 82 79 80 74 78 86 81 75 76 76 70 69 69 77 71 63 60 68 71 73 77 82 77 79 77
58 58 57 55 55 72 75 82 85 87 61 73 79 84 89 89 80 97 97 90 85 78 81 80 85 79 73 72 71 69 80 79 78 70 61 66 50 62 64 65 71 78 76 75 74
58 57 56 55 53 66 83 88 89 82 48 83 82 95 90 83 82 87 95 91 80 81 81 77 77 72 71 74 78 74 84 77 73 65 61 62 57 59 64 63 68 73 82 78 81
57 56 55 60 55 65 80 83 82 59 55 78 85 81 81 82 85 85 88 92 90 83 85 82 91 81 77 83 80 86 76 70 64 57 50 56 56 57 59 67 72 76 82 80 79
56 55 53 65 70 81 85 78 57 53 81 77 77 81 79 77 80 81 80 78 74 66 70 78 81 88 89 76 78 77 64 52 48 49 47 55 57 58 68 71 73 75 75 82 81
54 53 55 64 75 83 81 64 52 72 73 82 81 80 75 78 78 80 75 73 80 77 68 67 65 81 91 77 71 71 61 55 50 50 51 56 53 61 71 75 74 78 78 82 80
53 68 69 73 70 76 67 56 61 71 82 81 81 73 72 78 76 77 76 75 79 80 69 66 69 87 83 82 73 67 61 73 64 63 53 54 60 67 72 71 74 76 78 81 81
55 67 77 87 83 77 63 56 68 81 82 82 70 74 69 75 74 72 74 80 79 84 84 76 66 80 79 86 81 72 76 61 53 45 47 50 52 54 65 71 76 72 82 83 84
60 67 85 93 88 68 59 63 74 83 85 78 74 73 74 71 77 75 74 81 84 84 84 80 74 74 76 70 64 73 63 63 55 51 47 49 50 65 68 73 74 74 79 85 85
66 64 90 92 66 67 64 70 68 79 84 78 78 76 75 77 73 76 77 80 90 88 78 82 70 66 71 83 85 82 73 65 59 58 61 56 53 73 71 75 75 78 77 85 86
58 70 89 88 61 65 72 75 79 78 80 79 77 79 80 75 67 75 80 91 90 86 80 79 72 63 66 72 76 74 78 72 70 66 59 58 58 72 70 75 76 75 84 87 89
60 63 74 77 76 71 69 71 74 85 83 81 77 78 76 72 74 72 78 87 88 79 75 78 68 64 62 65 71 68 76 77 70 58 57 59 61 66 68 69 75 77 86 88 87
64 67 69 63 68 71 73 72 72 73 81 79 71 76 73 65 70 71 79 75 83 73 75 74 63 63 69 76 78 77 78 80 71 70 60 62 60 66 71 70 72 72 81 87 86
62 61 66 64 70 70 68 67 72 75 76 73 71 78 75 66 64 64 70 69 70 72 68 74 62 60 63 74 77 75 78 79 81 80 68 67 63 75 76 75 72 79 76 85 85
67 69 63 61 66 65 67 71 75 76 77 81 76 73 71 70 74 74 75 75 75 71 71 69 64 61 54 69 71 66 72 75 76 79 72 63 66 72 71 78 76 80 71 84 86
MSLP
1016.58 1016.23 1015.92 1015.58 1015.16 1014.67 1014.28 1013.88 1013.67 1013.47 1012.85 1012.47 1012.13 1011.80 1011.48 1010.95 1010.18 1010.13 1008.68 1006.14 1005.93 1006.12 1006.57 1007.54 1008.64 1009.02 1011.94 1012.80 1011.10 1011.39 1009.85 1005.80 1004.51 1003.93 1003.79 1003.47 1003.91 1004.55 1005.59 1006.60 1007.50 1008.38 1009.79 1011.25 1012.30
1016.57 1016.18 1015.81 1015.54 1015.16 1014.73 1014.17 1013.85 1013.49 1013.28 1012.93 1012.40 1012.10 1011.78 1011.43 1011.01 1010.18 1008.27 1005.55 1005.26 1005.11 1005.70 1006.58 1007.14 1008.47 1010.40 1013.26 1013.58 1012.61 1010.83 1007.63 1004.48 1003.16 1003.01 1003.11 1003.39 1003.95 1004.54 1005.74 1007.14 1008.81 1009.76 1010.72 1011.63 1012.37
1016.52 1016.14 1015.71 1015.38 1015.10 1014.63 1014.21 1013.68 1013.34 1013.08 1012.87 1012.41 1012.01 1011.72 1011.40 1011.12 1009.78 1005.51 1003.53 1004.78 1005.09 1005.41 1005.61 1006.67 1008.30 1009.85 1011.85 1012.16 1010.62 1008.10 1005.87 1003.47 1002.62 1002.32 1002.62 1003.17 1003.69 1004.36 1005.49 1007.16 1008.36 1009.51 1010.52 1011.18 1012.09
1016.44 1016.19 1015.74 1015.19 1014.76 1014.56 1014.10 1013.55 1013.20 1012.93 1012.67 1012.37 1011.88 1011.55 1011.25 1010.81 1008.16 1004.49 1004.01 1004.35 1005.03 1005.17 1005.67 1006.43 1007.72 1009.22 1010.47 1009.39 1007.40 1006.40 1003.70 1002.72 1002.34 1002.18 1002.73 1002.95 1003.41 1004.32 1004.95 1006.61 1007.50 1008.57 1009.48 1010.71 1011.51
1016.41 1015.98 1015.57 1015.09 1014.64 1014.18 1013.90 1013.51 1012.93 1012.71 1012.47 1012.20 1011.80 1011.50 1010.81 1009.83 1006.28 1004.37 1004.57 1005.20 1005.53 1005.50 1005.32 1005.60 1006.73 1008.03 1008.96 1007.88 1005.83 1004.97 1003.69 1002.74 1002.54 1002.72 1003.12 1003.29 1003.98 1004.64 1005.34 1006.15 1007.05 1008.02 1009.24 1010.20 1011.05
1016.29 1015.90 1015.46 1015.07 1014.52 1013.95 1013.52 1013.23 1012.84 1012.31 1012.23 1011.96 1011.73 1011.53 1010.93 1008.26 1003.63 1003.95 1004.67 1005.23 1005.16 1005.22 1004.76 1004.53 1005.17 1005.65 1006.10 1006.52 1005.67 1004.25 1004.12 1003.96 1003.60 1003.86 1003.58 1004.08 1004.49 1004.65 1005.55 1006.03 1006.83 1007.41 1008.58 1009.65 1010.49
1016.12 1015.72 1015.26 1014.78 1014.34 1013.82 1013.26 1012.81 1012.48 1012.03 1011.82 1011.68 1011.53 1011.16 1009.59 1005.75 1003.29 1003.94 1004.17 1004.47 1004.55 1004.54 1004.28 1004.09 1004.31 1005.47 1004.98 1007.18 1006.32 1005.26 1005.52 1004.99 1004.87 1005.24 1005.13 1005.30 1005.55 1005.39 1005.61 1006.11 1006.93 1007.40 1008.13 1008.91 1009.88
1015.95 1015.45 1015.02 1014.51 1014.04 1013.63 1013.06 1012.43 1011.97 1011.60 1011.33 1011.25 1011.29 1010.69 1007.88 1003.45 1002.94 1003.76 1003.76 1004.05 1004.03 1003.66 1003.61 1003.97 1003.92 1005.35 1005.04 1006.93 1007.32 1007.13 1006.66 1006.55 1006.22 1006.11 1006.37 1006.06 1006.48 1006.10 1006.21 1006.39 1007.09 1007.57 1008.30 1008.81 1009.37
1015.85 1015.31 1014.84 1014.27 1013.75 1013.29 1012.64 1011.90 1011.28 1010.96 1010.89 1010.91 1010.96 1010.00 1006.02 1002.29 1002.60 1002.69 1002.82 1003.25 1003.47 1003.21 1003.29 1003.08 1003.15 1004.62 1005.28 1006.43 1007.17 1007.06 1007.72 1007.63 1006.93 1006.69 1006.94 1006.91 1007.11 1006.78 1006.72 1007.15 1007.48 1007.63 1008.44 1009.09 1009.41
1015.66 1015.15 1014.72 1014.26 1013.71 1013.13 1012.24 1010.93 1010.45 1010.48 1010.44 1010.25 1009.26 1008.59 1004.65 1002.24 1001.88 1001.97 1002.03 1002.49 1002.89 1002.80 1002.79 1003.34 1004.01 1004.35 1005.24 1006.19 1007.74 1007.71 1007.88 1007.82 1007.80 1007.22 1007.46 1007.49 1007.58 1007.33 1007.26 1007.63 1007.91 1008.13 1008.84 1009.27 1009.43
1015.30 1014.85 1014.26 1013.91 1013.55 1013.18 1012.28 1010.38 1010.42 1009.97 1008.85 1007.04 1005.79 1004.46 1002.02 1001.26 1001.43 1001.80 1001.70 1002.11 1002.47 1002.67 1002.77 1003.06 1003.62 1003.89 1004.38 1005.30 1006.37 1007.22 1007.52 1007.83 1007.09 1007.03 1007.97 1008.26 1008.54 1008.12 1007.67 1007.91 1007.99 1008.57 1008.71 1010.55 1010.08
1015.03 1014.51 1013.91 1013.36 1013.15 1013.02 1013.08 1010.79 1006.76 1005.49 1005.71 1005.19 1004.19 1003.64 1001.85 1001.68 1001.32 1001.16 1001.47 1002.01 1002.36 1002.61 1002.55 1002.87 1002.93 1002.90 1003.59 1004.27 1004.57 1006.14 1007.18 1006.80 1006.75 1006.67 1008.06 1008.52 1008.48 1007.88 1008.00 1008.12 1008.52 1008.16 1008.78 1009.29 1010.28
1014.83 1014.17 1013.55 1012.91 1012.36 1012.29 1010.70 1008.21 1005.82 1005.12 1004.83 1003.00 1002.59 1002.41 1001.31 1000.86 1000.63 1000.57 1000.98 1001.38 1001.96 1002.41 1002.43 1002.53 1002.76 1003.17 1004.42 1004.26 1004.88 1004.90 1005.67 1006.33 1006.62 1006.61 1007.95 1009.03 1010.70 1010.10 1010.39 1009.44 1009.87 1008.57 1008.45 1009.00 1009.23
1014.63 1013.99 1013.43 1012.51 1011.93 1010.04 1008.38 1005.74 1005.54 1005.17 1004.68 1001.46 1000.57 1000.53 1000.40 999.99 999.93 999.81 1000.13 1000.95 1001.57 1001.87 1002.15 1002.15 1002.47 1003.22 1003.48 1004.37 1004.64 1004.57 1004.68 1005.47 1006.18 1007.03 1008.74 1010.03 1011.34 1010.61 1010.35 1009.59 1009.15 1009.42 1008.51 1008.32 1008.98
1014.26 1013.66 1013.22 1013.44 1012.21 1009.91 1006.07 1005.28 1004.59 1004.45 1003.62 998.36 998.95 998.52 999.20 999.74 999.89 999.83 999.80 1000.41 1000.96 1001.31 1001.73 1001.65 1002.47 1003.51 1003.77 1003.60 1003.34 1004.20 1003.76 1005.04 1006.20 1007.57 1008.83 1010.23 1010.65 1010.53 1009.87 1009.37 1008.54 1008.37 1007.98 1008.01 1008.11
1013.62 1013.29 1012.94 1011.80 1012.03 1007.90 1005.89 1005.35 1004.69 1004.72 1001.31 998.11 998.28 998.60 999.41 999.64 1000.05 999.81 999.97 1000.08 1000.58 1001.15 1001.10 1001.05 1000.61 1002.04 1001.96 1002.98 1003.42 1003.86 1004.58 1005.75 1006.99 1008.04 1009.55 1010.10 1010.12 1009.99 1009.50 1008.46 1007.75 1007.66 1007.57 1006.85 1006.68
1012.71 1012.48 1012.87 1011.44 1008.47 1006.02 1006.07 1005.70 1005.25 1003.14 998.78 998.12 998.08 998.42 999.18 999.69 999.96 999.87 1000.05 1000.16 1000.49 1001.18 1001.17 1000.99 1000.38 1000.06 1000.35 1002.51 1003.24 1003.39 1005.10 1006.87 1008.22 1009.01 1010.13 1010.22 1009.99 1008.41 1006.91 1006.86 1006.93 1006.95 1006.49 1006.01 1006.49
1011.55 1010.68 1009.75 1009.06 1007.22 1006.67 1006.20 1006.04 1004.57 1000.89 998.93 997.52 997.67 998.23 998.82 999.47 999.68 999.73 999.75 1000.08 1000.37 1000.99 1001.16 1001.11 1000.44 999.76 999.57 1000.37 1001.92 1004.46 1006.04 1006.66 1007.71 1008.60 1009.79 1010.32 1010.04 1007.61 1005.70 1004.43 1005.42 1005.43 1005.71 1006.28 1006.04
1010.65 1008.56 1008.06 1006.44 1006.87 1007.07 1006.67 1005.60 1002.50 999.98 998.61 997.26 997.28 997.80 998.58 998.97 999.10 999.51 999.40 999.66 999.75 1000.28 1000.92 1000.68 999.89 999.08 999.91 1000.18 1002.01 1003.48 1004.62 1003.45 1005.85 1007.37 1008.83 1010.32 1009.95 1006.71 1005.58 1004.86 1004.79 1004.42 1004.50 1005.60 1005.76
1010.90 1008.45 1005.72 1004.47 1005.47 1006.23 1006.22 1004.34 1001.97 1000.11 999.01 997.96 997.60 997.03 997.87 998.31 998.80 998.99 998.95 998.51 998.82 999.20 999.79 1000.03 1000.23 999.49 999.97 1000.18 1000.81 1001.96 1001.63 1003.55 1006.27 1008.69 1010.00 1011.26 1010.20 1008.39 1005.77 1004.66 1005.40 1004.09 1002.40 1003.78 1004.65
1010.24 1007.24 1002.91 1003.30 1004.67 1005.54 1005.11 1003.53 1001.76 1000.04 999.33 998.43 998.05 998.00 997.85 998.16 997.66 997.82 997.95 997.64 997.61 998.08 998.70 999.54 1000.10 999.26 1000.41 1000.78 1002.01 1001.08 1001.68 1003.26 1006.11 1007.84 1008.75 1009.02 1008.58 1005.96 1004.15 1003.95 1005.08 1004.85 1004.38 1002.20 1002.98
1009.66 1006.15 1002.76 1003.07 1004.28 1004.49 1004.10 1003.05 1001.63 1000.30 999.24 998.39 998.41 998.44 998.37 997.93 997.86 997.31 996.65 996.28 996.10 996.80 997.77 998.38 999.16 999.60 999.38 999.00 998.86 999.27 1000.99 1002.01 1003.94 1005.97 1006.28 1006.48 1006.39 1004.59 1004.64 1004.53 1003.79 1003.29 1003.47 1003.47 1001.95
1010.80 1006.32 1002.58 1002.89 1003.64 1003.77 1003.17 1002.20 1001.42 1000.20 999.24 998.68 998.63 998.49 998.40 998.25 998.10 997.09 996.16 995.18 995.09 995.85 996.64 997.40 998.48 999.30 999.11 998.79 998.80 998.92 999.09 999.92 1001.22 1002.40 1003.96 1005.03 1005.01 1003.94 1004.16 1003.93 1003.04 1002.90 1001.90 1002.48 1002.40
1011.25 1006.65 1003.47 1003.15 1003.22 1003.24 1002.86 1001.89 1000.65 999.57 998.91 998.74 999.11 998.97 998.88 998.61 998.10 997.57 996.43 995.40 994.96 996.01 996.42 996.59 997.71 998.67 999.17 998.78 998.26 998.33 998.16 998.58 999.73 1001.36 1003.08 1003.84 1003.73 1003.62 1004.55 1003.31 1001.83 1002.52 1000.94 1001.37 1001.72
1010.59 1007.18 1006.17 1004.49 1003.80 1003.78 1002.90 1001.98 1000.86 999.82 998.73 998.81 999.44 999.67 999.71 999.72 999.23 998.52 997.43 996.75 996.16 996.34 996.37 996.75 997.96 998.40 998.45 998.34 997.88 997.63 997.63 997.91 998.64 999.35 1001.49 1002.57 1003.41 1003.01 1003.28 1004.01 1005.19 1004.80 1002.61 1000.97 1001.85
1010.35 1009.18 1007.74 1006.63 1005.08 1004.02 1002.77 1001.95 1001.22 1000.29 999.90 999.72 999.75 999.84 1000.02 1000.65 1001.23 1000.45 999.74 998.54 997.52 997.06 996.97 997.20 998.13 998.57 998.99 998.72 998.23 997.80 997.24 997.17 997.47 997.93 999.88 1001.14 1002.53 1002.28 1001.32 1001.05 1002.84 1002.61 1003.11 1001.13 1001.69
1011.35 1010.27 1009.31 1007.36 1006.16 1005.14 1003.65 1002.49 1001.72 1001.11 1000.28 1000.29 1000.64 1000.27 1000.74 1001.61 1001.58 1001.09 1000.52 999.87 998.82 998.29 997.74 998.26 998.78 999.55 999.72 999.34 998.84 998.10 997.24 996.74 996.84 996.97 998.66 1000.22 1001.16 1001.30 1001.35 1000.34 1001.01 1002.22 1003.09 1000.96 1001.13
Wind_Speed
15 16 16 16 16 17 17 18 16 15 16 16 16 15 15 16 18 4 7 9 8 15 6 8 9 6 33 12 8 4 4 3 7 12 7 9 12 12 20 23 21 11 19 23 19
15 16 16 16 16 16 18 18 17 16 15 16 16 16 15 15 5 9 10 10 7 17 5 8 6 16 12 15 8 6 4 3 9 12 12 14 10 13 17 22 22 19 16 22 20
16 16 17 17 16 17 17 18 17 17 15 16 16 15 14 11 5 10 11 16 15 16 9 9 17 20 4 12 18 7 6 6 10 13 14 13 11 14 18 17 23 23 19 21 19
16 16 16 17 18 17 17 18 18 17 16 15 16 15 13 4 3 3 9 18 16 13 8 8 9 10 7 7 7 8 4 13 5 12 10 8 13 12 18 19 18 25 25 17 17
17 17 17 18 18 19 17 17 19 18 17 15 14 12 6 4 12 6 11 9 8 8 11 13 7 7 5 7 4 2 7 13 9 13 9 5 13 17 18 20 18 21 25 22 17
17 17 17 17 18 19 19 17 18 20 16 15 12 10 3 6 7 13 10 9 9 9 10 15 10 13 8 6 10 4 5 10 16 18 9 11 8 9 14 15 14 14 18 24 21
18 18 18 19 19 20 20 19 19 20 17 12 9 5 5 17 8 8 11 7 10 11 14 10 11 19 6 14 20 13 3 8 13 12 8 7 6 4 13 16 11 11 15 16 21
19 20 19 20 20 20 20 20 21 19 15 10 6 5 10 10 13 10 10 9 11 12 17 5 8 7 6 5 10 6 6 2 2 6 5 7 4 4 7 8 11 13 11 12 10
18 19 20 20 22 22 21 23 22 16 9 4 4 4 10 5 6 12 12 11 11 13 5 5 5 2 3 4 2 6 3 5 10 5 2 2 2 9 7 7 5 16 15 15 11
18 19 18 18 21 21 23 24 10 9 5 8 9 4 8 11 9 10 9 12 10 12 13 6 2 7 2 5 1 4 1 1 7 1 7 5 7 6 4 6 4 4 6 14 16
20 20 20 18 17 15 13 4 1 2 7 12 12 8 10 14 8 11 11 13 13 10 11 15 5 8 12 9 8 7 6 9 8 14 4 9 9 12 5 4 7 6 10 6 2
21 21 21 20 17 13 6 5 11 5 7 22 22 20 20 8 11 13 13 12 13 14 11 12 13 10 9 14 13 15 12 11 13 14 12 6 16 19 14 7 6 8 17 15 6
21 21 21 21 21 6 8 12 12 18 5 10 18 14 20 13 18 12 17 15 10 16 13 12 6 10 6 7 10 7 11 5 10 9 7 8 6 17 7 17 9 7 11 9 9
21 21 20 24 4 5 7 11 18 16 5 9 14 9 15 5 6 11 15 12 16 15 17 14 7 10 10 7 5 4 9 15 10 7 2 8 2 2 16 16 14 12 14 14 14
21 20 18 6 10 5 8 13 6 1 5 7 13 7 8 12 5 11 10 12 16 16 12 14 14 14 5 9 18 8 6 3 5 4 3 1 1 4 7 11 12 18 17 17 21
22 19 17 0 6 14 14 14 1 1 8 5 11 10 15 10 16 6 12 12 11 16 18 15 13 11 12 11 15 4 2 7 7 3 4 5 5 4 4 2 8 1 14 19 16
25 19 8 8 7 9 8 4 1 5 10 13 14 12 18 11 16 13 14 15 14 10 16 16 20 17 7 11 7 11 6 2 5 4 5 6 1 8 15 14 13 7 16 21 15
29 27 10 10 9 11 7 2 6 10 12 2 11 12 15 13 13 16 9 14 14 13 7 12 16 15 15 10 10 9 6 4 5 4 3 3 4 7 11 11 14 12 14 13 16
30 2 4 7 14 5 2 5 7 7 14 7 17 13 9 11 8 15 16 13 13 16 15 10 17 18 8 9 4 10 9 9 1 6 3 1 5 14 13 18 16 20 23 18 15
5 5 8 7 13 5 3 8 9 13 17 12 7 4 10 16 14 11 14 12 13 14 16 20 15 11 4 8 22 7 2 6 5 4 6 6 5 6 16 19 12 23 20 26 21
3 4 6 14 10 2 6 7 10 17 16 6 10 11 12 4 15 15 12 14 13 14 16 17 14 22 10 7 12 9 2 5 9 7 9 5 7 11 16 12 3 7 7 23 23
6 3 7 8 4 4 8 7 8 22 22 2 5 8 11 14 7 15 19 13 19 19 15 15 9 10 15 13 14 9 9 7 6 6 2 3 7 8 8 7 12 8 9 13 23
6 5 5 6 4 8 9 18 19 20 20 5 6 7 11 11 8 8 5 16 9 16 17 10 12 9 12 8 6 7 12 8 6 3 6 7 7 7 5 8 10 5 17 11 16
5 4 3 4 6 11 11 12 14 19 17 5 8 10 11 8 8 8 13 8 5 5 4 7 3 9 10 10 5 5 8 10 9 2 4 4 4 7 4 5 12 21 11 25 23
4 3 5 2 2 9 11 13 17 16 8 7 3 9 9 8 10 10 11 2 5 2 2 3 3 4 7 7 9 11 10 10 9 8 9 10 9 8 6 19 8 16 13 20 19
4 5 7 10 10 12 11 5 11 15 10 5 7 12 7 6 7 8 11 8 4 1 1 3 3 2 6 9 12 15 12 11 6 7 10 14 4 4 6 12 8 4 9 18 17
5 5 4 7 8 9 8 9 10 11 9 9 15 5 6 10 10 12 11 10 9 6 7 3 4 3 5 7 10 11 7 7 9 7 17 9 8 8 4 11 5 20 8 14 16
Wind_Direction
355 352 351 346 341 336 334 331 333 334 328 327 329 329 327 323 307 179 233 234 178 182 221 151 190 211 51 29 327 283 264 148 161 110 110 98 83 104 85 81 68 90 114 124 122
352 350 346 342 338 333 329 327 327 329 326 324 325 327 326 328 287 244 224 185 176 165 198 206 159 83 119 194 242 229 277 245 118 137 146 115 123 121 108 106 102 106 113 126 130
349 348 341 337 335 331 326 323 323 322 324 321 320 323 322 319 285 241 202 165 159 174 219 189 102 101 262 188 220 221 212 121 74 117 119 125 151 145 125 121 136 139 149 150 144
347 344 339 335 332 329 325 320 318 318 320 319 318 321 320 270 244 33 75 144 165 192 237 236 93 133 188 251 240 261 257 89 100 95 69 105 115 86 113 135 140 151 155 153 160
344 341 339 334 329 325 323 318 314 315 316 316 315 323 319 233 250 124 119 116 149 216 224 233 144 107 262 229 253 187 340 104 106 100 107 125 113 121 123 137 146 152 153 162 167
342 340 335 331 327 323 319 315 311 309 311 310 309 312 247 254 237 144 148 143 193 195 230 243 164 197 210 216 284 232 269 6 66 12 158 116 119 110 132 131 147 160 140 164 161
339 338 333 330 327 322 316 310 308 304 304 301 294 265 257 238 129 156 168 179 211 191 229 245 74 281 330 66 302 290 224 37 30 29 23 347 63 147 144 140 156 131 141 154 163
336 335 332 329 326 322 314 307 303 298 294 277 258 246 251 256 240 201 191 189 218 227 228 265 150 228 130 276 281 265 44 47 326 50 360 46 211 186 67 150 160 144 144 136 145
332 330 329 327 327 323 314 303 298 287 257 261 187 239 264 227 192 218 184 204 211 239 209 220 103 213 143 135 338 32 167 341 326 127 172 123 277 259 108 99 45 152 158 151 151
329 327 325 323 325 323 316 295 281 309 223 185 263 291 257 230 192 218 211 197 213 233 238 182 190 237 111 80 46 201 185 228 245 306 184 226 262 279 160 124 100 165 70 160 166
328 325 323 322 320 325 339 347 281 238 242 202 191 236 272 208 191 205 229 196 228 236 238 209 219 231 229 144 190 252 146 224 256 237 236 220 238 245 194 184 167 203 87 17 240
326 324 322 319 315 317 294 245 255 323 256 226 252 231 263 279 217 203 210 202 218 236 231 252 230 237 158 183 193 161 191 200 262 227 200 317 243 216 207 231 210 161 146 191 126
323 322 321 317 312 278 216 237 279 299 288 269 210 232 243 240 222 197 203 202 209 231 232 234 259 109 113 351 299 198 194 256 235 150 97 199 292 287 8 327 298 182 161 192 169
321 320 322 324 302 322 231 231 243 258 295 253 183 223 244 208 272 188 204 192 226 225 230 246 160 93 62 296 283 210 179 214 236 27 75 173 203 329 203 232 265 260 190 186 189
319 318 318 329 309 268 292 326 228 342 280 163 163 196 227 172 155 239 220 204 224 236 227 242 137 140 164 203 255 254 160 156 80 68 91 28 324 188 199 242 245 248 226 198 201
316 316 325 136 203 246 290 299 313 291 250 146 151 207 193 191 220 240 212 222 216 242 252 250 245 163 200 255 223 143 49 42 33 39 53 205 141 269 199 273 300 23 249 206 194
312 306 289 297 233 350 289 298 187 231 286 144 158 173 186 202 215 223 215 211 205 222 247 264 268 265 201 172 144 166 112 294 352 23 221 211 191 237 271 232 229 282 297 190 185
313 306 231 212 246 275 273 228 242 244 242 71 162 189 187 202 207 235 210 203 206 226 251 237 269 258 255 158 158 131 213 199 245 194 209 251 325 274 280 311 283 283 274 220 169
312 195 218 228 221 257 286 214 219 235 347 332 164 167 185 214 207 205 238 206 204 202 231 243 255 253 5 11 94 214 221 180 56 322 74 250 301 294 253 270 281 296 230 215 180
307 275 235 196 168 201 231 243 253 313 310 341 335 173 169 195 211 196 225 209 202 209 206 252 274 276 311 309 313 241 224 65 18 90 5 332 272 253 298 308 355 343 174 184 173
238 251 232 165 163 188 226 246 279 268 276 287 322 320 321 275 202 209 213 235 196 216 205 220 242 277 148 159 202 241 101 82 105 162 152 201 241 232 236 269 46 230 287 170 152
308 270 150 148 161 204 235 247 271 285 289 347 303 291 298 299 313 227 211 206 205 205 213 208 204 247 256 238 196 193 205 148 132 254 245 167 245 261 263 298 295 299 268 231 155
306 282 169 173 217 234 249 243 252 271 280 290 297 253 279 292 316 323 267 221 221 198 203 207 216 238 283 289 243 203 230 184 203 151 191 161 244 207 285 271 273 281 307 173 140
277 280 192 183 241 267 282 285 270 248 251 308 315 326 307 313 301 289 313 358 82 102 65 103 185 187 227 228 240 256 201 203 187 164 138 199 243 285 130 348 344 331 215 155 154
236 304 18 315 319 301 256 272 295 304 296 155 284 263 292 320 311 300 306 40 338 101 125 105 200 274 295 295 281 274 279 269 196 203 152 196 193 246 153 145 234 266 277 141 148
318 356 339 301 305 308 304 286 284 298 299 277 206 240 261 298 22 328 0 29 293 64 37 333 272 336 306 314 308 298 297 297 283 216 80 141 179 221 354 326 149 310 291 147 149
346 347 299 300 314 317 298 292 300 315 309 309 354 18 23 19 333 306 295 286 285 283 173 197 176 170 257 281 297 297 277 294 298 296 140 156 186 142 71 322 275 187 244 157 159